Location: Namasale
(1.5000°N, 32.6167°E)
Time: 23:09:18
(UTC+00:00)

Vanguard 3 - Pass Details

Date: 10 December 2021
Orbit: 508 x 3260 km, 33.3° (Epoch: 27 January)

Event Time Altitude Azimuth Distance (km) Brightness Sun altitude
Exits shadow 01:31:44 20° 341° (NNW) 5,369 10.9 -30.4°
Maximum altitude 01:34:38 20° 352° (N) 5,328 10.9 -29.8°
Drops below altitude 10° 01:47:15 10° 34° (NNE) 5,880 11.6 -26.9°
Sets 01:53:36 0° 49° (NE) 6,544 12.1 -25.5°
